DW4230 Weather Reports


time (UTC)temp
C
wind
direction
speed
KPH
gust
KPH
rain 1hr
cm
rain 24hr
cm
rain mn
cm
humidity
%
barometer
mb
20200531074509 16 344 8.0 24.1 0.00 0.03 0.00 65 1010.8
20200531073116 17 331 9.7 20.9 0.00 0.03 0.00 65 1010.6
20200531071551 17 330 11.3 25.7 0.00 0.03 0.00 65 1010.7
20200531070009 17 338 6.4 22.5 0.00 0.03 0.00 65 1010.6
20200531064507 17 339 8.0 24.1 0.00 0.03 0.00 65 1010.5
20200531063102 17 322 9.7 24.1 0.00 0.03 0.00 65 1010.2
20200531061534 17 329 4.8 17.7 0.00 0.03 0.00 64 1010.3
20200531060106 17 2 8.0 22.5 0.00 0.08 0.00 63 1010.1
20200531054606 17 337 8.0 19.3 0.00 0.08 0.00 63 1010.0
20200531053106 17 344 9.7 27.4 0.00 0.08 0.00 63 1010.1
20200531044646 18 308 6.4 27.4 0.00 0.10 0.00 56 1010.3
20200531043140 17 287 4.8 19.3 0.00 0.10 0.00 43 1010.2
20200531041631 17 222 9.7 17.7 0.00 0.10 0.00 19 1010.1
20200531040149 17 243 8.0 16.1 0.00 0.10 0.10 20 1010.1
20200531034924 17 257 8.0 17.7 0.00 0.10 0.10 25 1010.1
20200531031517 17 242 6.4 14.5 0.00 0.10 0.10 34 1010.2
20200531030053 17 252 6.4 16.1 0.00 0.10 0.10 35 1010.1
20200531024528 17 270 6.4 16.1 0.00 0.10 0.10 33 1010.1
20200531023116 17 266 8.0 19.3 0.00 0.10 0.10 21 1010.2
20200531020016 16 240 6.4 12.9 0.00 0.10 0.10 100 1010.3
20200531014546 17 247 0.0 6.4 0.00 0.10 0.10 100 1010.2
20200531013210 17 248 0.0 11.3 0.00 0.10 0.10 100 1010.1
20200531011544 17 252 3.2 12.9 0.00 0.10 0.10 100 1010.2
20200531010026 17 251 6.4 14.5 0.00 0.10 0.10 100 1010.2
20200531004501 17 237 8.0 19.3 0.00 0.10 0.10 100 1010.2
20200531003010 17 231 8.0 16.1 0.00 0.10 0.10 100 1010.2
20200531001529 17 241 6.4 17.7 0.00 0.10 0.10 100 1010.1
20200531000045 17 267 11.3 20.9 0.00 0.10 0.10 100 1010.1
20200530234518 17 239 11.3 22.5 0.00 0.10 0.10 100 1009.9
20200530233036 17 204 16.1 25.7 0.00 0.10 0.10 100 1009.9
20200530231524 17 124 9.7 25.7 0.00 0.10 0.10 100 1009.8
20200530230106 18 225 16.1 25.7 0.00 0.10 0.10 100 1009.7
20200530224527 17 227 17.7 27.4 0.00 0.10 0.10 100 1009.6
20200530223100 17 189 8.0 25.7 0.00 0.10 0.10 100 1009.4
20200530221558 17 124 12.9 20.9 0.00 0.10 0.10 100 1009.3
20200530220135 17 191 12.9 24.1 0.00 0.10 0.10 100 1009.3
20200530214518 17 202 11.3 27.4 0.00 0.10 0.10 100 1009.4
20200530211732 17 242 14.5 22.5 0.00 0.10 0.10 100 1009.4
20200530210115 17 234 14.5 27.4 0.00 0.10 0.10 100 1009.3
20200530204732 17 218 12.9 24.1 0.00 0.10 0.10 100 1009.4
20200530203216 17 240 16.1 27.4 0.00 0.10 0.10 100 1009.6
20200530194722 16 194 9.7 22.5 0.00 0.13 0.10 100 1009.6
20200530193132 16 231 9.7 24.1 0.00 0.13 0.10 100 1009.7
20200530190128 16 181 14.5 24.1 0.00 0.13 0.10 100 1009.6
20200530184519 16 187 19.3 25.7 0.00 0.13 0.10 100 1009.5
20200530183111 17 214 11.3 24.1 0.00 0.13 0.10 100 1009.6
20200530181552 17 223 12.9 25.7 0.00 0.13 0.10 100 1009.6
20200530180206 16 237 16.1 25.7 0.00 0.13 0.10 100 1009.5
20200530173115 16 206 12.9 24.1 0.00 0.13 0.10 100 1009.7
20200530171610 16 222 19.3 25.7 0.00 0.13 0.10 100 1009.8
20200530170118 16 208 12.9 24.1 0.00 0.13 0.10 100 1009.9
20200530164527 16 216 8.0 20.9 0.00 0.13 0.10 100 1010.0
20200530163058 16 222 8.0 24.1 0.00 0.13 0.10 100 1010.1
20200530161506 16 204 12.9 25.7 0.00 0.13 0.10 100 1010.3
20200530160036 15 208 3.2 24.1 0.00 0.13 0.10 100 1010.4
20200530154538 15 214 11.3 20.9 0.00 0.13 0.10 100 1010.6
20200530153014 16 191 4.8 19.3 0.00 0.13 0.10 100 1010.7
20200530151640 15 200 11.3 20.9 0.00 0.13 0.10 100 1010.6
20200530150234 15 189 14.5 22.5 0.00 0.13 0.10 100 1010.6
20200530143008 15 194 14.5 22.5 0.00 0.20 0.10 100 1011.0
20200530141507 15 189 9.7 20.9 0.00 0.20 0.10 100 1010.9
20200530134610 15 202 11.3 17.7 0.00 0.20 0.10 100 1010.9
20200530133135 15 206 0.0 14.5 0.00 0.20 0.10 100 1011.0
20200530131602 15 210 3.2 16.1 0.00 0.20 0.10 100 1011.0
20200530123022 15 237 8.0 20.9 0.00 0.23 0.10 100 1011.1
20200530121526 15 242 9.7 17.7 0.00 0.23 0.10 100 1011.0
20200530120101 15 243 9.7 24.1 0.00 0.23 0.10 100 1011.0
20200530114535 14 273 11.3 25.7 0.00 0.23 0.10 100 1010.8
20200530113014 14 265 14.5 27.4 0.00 0.23 0.10 100 1011.1
20200530111514 15 239 14.5 29.0 0.00 0.23 0.10 100 1010.6
20200530110128 15 208 17.7 27.4 0.00 0.23 0.10 100 1010.6
20200530104552 15 272 16.1 25.7 0.00 0.23 0.10 100 1010.6
20200530103145 15 210 14.5 33.8 0.00 0.23 0.10 100 1010.5
20200530101725 14 229 14.5 27.4 0.03 0.23 0.10 100 1010.7
20200530100300 15 227 9.7 19.3 0.03 0.23 0.10 100 1010.7
20200530094628 15 218 11.3 22.5 0.03 0.23 0.10 100 1010.7
20200530093047 15 225 14.5 25.7 0.00 0.20 0.08 100 1010.8
20200530090007 15 225 14.5 22.5 0.00 0.20 0.08 100 1011.0
20200530084542 15 233 11.3 25.7 0.00 0.20 0.08 100 1011.1
20200530083011 15 235 8.0 20.9 0.00 0.20 0.08 100 1010.9
20200530080051 15 222 14.5 24.1 0.00 0.20 0.08 100 1011.2